User: anonymous   Login
Location: Albany
(35.0000°S, 118.0000°E)
Time: 03:05:39
(UTC-04:00)
Language:

CZ-4B R/B - Orbit

View from above orbital plane
View from above orbital plane
View from above satellite
View from above satellite

Ground track
Ground track

The orbit data is extracted from the following two-line orbital elements,

1 33410U 08053C   17268.94425200 +.00000990 +00000-0 +76902-4 0  9993
2 33410 097.7434 238.7031 0118607 212.2523 147.1409 14.98410540485651
Epoch (UTC): 25 September 2017 22:39:43
Eccentricity: 0.0118607
inclination: 97.7434°
perigee height: 489 km
apogee height: 654 km
right ascension of ascending node: 238.7031°
argument of perigee: 212.2523°
revolutions per day: 14.98410540
mean anomaly at epoch: 147.1409°
orbit number at epoch: 48565

The dashed part of the orbit path shows where the satellite is in the earth's shadow,  

DLR